This is the latest recevied weather packets stored in our database for station/object KI2K. If no packets are shown the sender has not sent any weather packets the latest 1 day(s).
| Time | Temp. | Humidity | Pressure | Rain* | Wind** | Luminosity | Snow |
|---|---|---|---|---|---|---|---|
| 1836274803 | 19.44° C | 86% | 1016.9 hPa | 0 mm | 0 m/s | 0 W/m² | - |
| 1836274501 | 19.44° C | 86% | 1016.9 hPa | 0 mm | 0 m/s | 0 W/m² | - |
| 1836274354 | 19.44° C | 86% | 1016.8 hPa | 0 mm | 0 m/s | 0 W/m² | - |
| 1836274198 | 19.44° C | 86% | 1016.8 hPa | 0 mm | 0 m/s | 0 W/m² | - |
| 1836273892 | 19.44° C | 85% | 1017 hPa | 0 mm | 0 m/s | 0 W/m² | - |
| 1778044503 | 7.78° C | 99% | 1009.3 hPa | 0 mm | 0 m/s | 0 W/m² | - |
| 1778044200 | 7.78° C | 99% | 1009.3 hPa | 1.78 mm | 0.45 m/s, 281° | 0 W/m² | - |
| 1778043898 | 7.78° C | 99% | 1009.5 hPa | 1.78 mm | 0 m/s | 0 W/m² | - |
| 1778043595 | 7.78° C | 99% | 1009.8 hPa | 1.78 mm | 0 m/s | 0 W/m² | - |
| 1778043291 | 7.78° C | 99% | 1009.8 hPa | 4.83 mm | 0 m/s | 0 W/m² | - |
| 1778042988 | 7.78° C | 99% | 1009.9 hPa | 3.05 mm | 0 m/s | 0 W/m² | - |
| 1778042686 | 7.78° C | 99% | 1009.8 hPa | 1.78 mm | 0.45 m/s, 302° | 0 W/m² | - |
| 1778042383 | 7.78° C | 99% | 1009.9 hPa | 0 mm | 0.45 m/s, 283° | 0 W/m² | - |
| 1778042080 | 7.78° C | 99% | 1009.7 hPa | 1.27 mm | 0.45 m/s, 309° | 0 W/m² | - |
| 1778041778 | 7.78° C | 99% | 1009.5 hPa | 1.27 mm | 0.45 m/s, 290° | 0 W/m² | - |
| 1778041477 | 7.78° C | 99% | 1009.2 hPa | 0 mm | 0.45 m/s, 309° | 0 W/m² | - |
| 1778041174 | 7.78° C | 99% | 1008.9 hPa | 0 mm | 0.45 m/s, 275° | 0 W/m² | - |
| 1778040872 | 7.78° C | 99% | 1008.9 hPa | 0 mm | 0 m/s | 0 W/m² | - |
| 1778040569 | 8.33° C | 99% | 1009.1 hPa | 0 mm | 0 m/s | 0 W/m² | - |
| 1778040267 | 7.78° C | 99% | 1009 hPa | 1.78 mm | 0 m/s | 0 W/m² | - |
| 1778039962 | 8.33° C | 99% | 1008.7 hPa | 0 mm | 0.45 m/s, 298° | 0 W/m² | - |
| 1778039660 | 8.33° C | 99% | 1008.6 hPa | 0 mm | 0.89 m/s, 303° | 0 W/m² | - |
| 1778039357 | 8.33° C | 99% | 1008.6 hPa | 0 mm | 0.45 m/s, 289° | 0 W/m² | - |
| 1778039054 | 8.33° C | 99% | 1008.8 hPa | 0 mm | 0 m/s | 0 W/m² | - |
| 1778038751 | 8.33° C | 99% | 1008.4 hPa | 0 mm | 0 m/s | 0 W/m² | - |
* Rain latest hour (hover to see other rain measurements)
** Current wind speed in m/s (hover to see current wind gust speed)